Time,TemperatureF,DewpointF,PressureIn,WindDirection,WindDirectionDegrees,WindSpeedMPH,WindSpeedGustMPH,Humidity,HourlyPrecipIn,Conditions,Clouds,dailyrainin,SoftwareType,DateUTC
2013-03-28 00:03:00,51.8,47.1,29.94,SE,135,0.0,0.0,84,0.00,,---,0.00,VWS V14.01,2013-03-28 07:03:00,
2013-03-28 00:08:00,51.6,47.3,29.94,SE,135,0.0,3.1,85,0.00,,---,0.00,VWS V14.01,2013-03-28 07:08:00,
2013-03-28 00:14:00,51.6,47.3,29.94,SE,135,0.0,0.0,85,0.00,,---,0.00,VWS V14.01,2013-03-28 07:14:00,
2013-03-28 00:19:00,51.6,47.3,29.94,SSE,158,0.0,0.0,85,0.00,,---,0.00,VWS V14.01,2013-03-28 07:19:00,
2013-03-28 00:24:00,51.6,47.3,29.94,SSE,158,0.0,3.8,85,0.00,,---,0.00,VWS V14.01,2013-03-28 07:24:00,
2013-03-28 00:29:00,51.4,47.1,29.94,SSE,158,0.0,3.8,85,0.00,,---,0.00,VWS V14.01,2013-03-28 07:29:00,
2013-03-28 00:35:00,51.4,47.1,29.94,SSE,158,0.0,3.6,85,0.00,,---,0.00,VWS V14.01,2013-03-28 07:35:00,
2013-03-28 00:40:00,51.4,47.1,29.94,SSE,158,0.0,3.6,85,0.00,,---,0.00,VWS V14.01,2013-03-28 07:40:00,
2013-03-28 00:45:00,51.3,46.9,29.94,SE,135,0.0,0.0,85,0.00,,---,0.00,VWS V14.01,2013-03-28 07:45:00,
2013-03-28 00:50:00,51.1,47.0,29.94,SE,135,0.0,0.0,86,0.00,,---,0.00,VWS V14.01,2013-03-28 07:50:00,
2013-03-28 00:55:00,51.1,47.0,29.94,ESE,112,0.0,0.0,86,0.00,,---,0.00,VWS V14.01,2013-03-28 07:55:00,
2013-03-28 01:00:00,51.1,47.0,29.94,ESE,112,0.0,0.0,86,0.00,,---,0.00,VWS V14.01,2013-03-28 08:00:00,
2013-03-28 01:05:00,51.1,47.0,29.94,ESE,112,0.0,0.0,86,0.00,,---,0.00,VWS V14.01,2013-03-28 08:05:00,
2013-03-28 01:10:00,51.1,47.0,29.94,ESE,112,0.0,0.0,86,0.00,,---,0.00,VWS V14.01,2013-03-28 08:10:00,
2013-03-28 01:15:00,50.9,46.9,29.94,ESE,112,0.0,2.0,86,0.00,,---,0.00,VWS V14.01,2013-03-28 08:15:00,
2013-03-28 01:20:00,50.7,46.7,29.94,ESE,112,0.0,0.0,86,0.00,,---,0.00,VWS V14.01,2013-03-28 08:20:00,
2013-03-28 01:25:00,50.7,46.7,29.94,ESE,112,0.0,0.9,86,0.00,,---,0.00,VWS V14.01,2013-03-28 08:25:00,
2013-03-28 01:31:00,50.5,46.5,29.94,ESE,112,0.0,0.0,86,0.00,,---,0.00,VWS V14.01,2013-03-28 08:31:00,
2013-03-28 01:36:00,50.2,46.5,29.94,ESE,112,0.0,0.9,87,0.00,,---,0.00,VWS V14.01,2013-03-28 08:36:00,
2013-03-28 01:41:00,50.4,46.6,29.94,ESE,112,0.0,0.0,87,0.00,,---,0.00,VWS V14.01,2013-03-28 08:41:00,
2013-03-28 01:46:00,50.4,46.6,29.94,ESE,112,0.0,0.0,87,0.00,,---,0.00,VWS V14.01,2013-03-28 08:46:00,
2013-03-28 01:51:00,50.2,46.5,29.94,ESE,112,0.0,0.0,87,0.00,,---,0.00,VWS V14.01,2013-03-28 08:51:00,
2013-03-28 01:56:00,50.2,46.5,29.94,ESE,112,0.0,0.0,87,0.00,,---,0.00,VWS V14.01,2013-03-28 08:56:00,
2013-03-28 02:01:00,50.2,46.5,29.94,ESE,112,0.0,0.0,87,0.00,,---,0.00,VWS V14.01,2013-03-28 09:01:00,
2013-03-28 02:06:00,50.2,46.5,29.94,ESE,112,0.0,0.0,87,0.00,,---,0.00,VWS V14.01,2013-03-28 09:06:00,
2013-03-28 02:12:00,50.0,46.3,29.94,ESE,112,0.0,0.0,87,0.00,,---,0.00,VWS V14.01,2013-03-28 09:12:00,
2013-03-28 02:17:00,50.0,46.3,29.94,ESE,112,0.0,0.0,87,0.00,,---,0.00,VWS V14.01,2013-03-28 09:17:00,
2013-03-28 02:22:00,49.8,46.4,29.94,ESE,112,0.0,0.0,88,0.00,,---,0.00,VWS V14.01,2013-03-28 09:22:00,
2013-03-28 02:27:00,49.8,46.4,29.94,ESE,112,0.0,0.0,88,0.00,,---,0.00,VWS V14.01,2013-03-28 09:27:00,
2013-03-28 02:32:00,49.8,46.4,29.94,ESE,112,0.0,0.0,88,0.00,,---,0.00,VWS V14.01,2013-03-28 09:32:00,
2013-03-28 02:37:00,49.6,46.2,29.94,ESE,112,0.0,0.0,88,0.00,,---,0.00,VWS V14.01,2013-03-28 09:37:00,
2013-03-28 02:42:00,49.8,46.4,29.94,ESE,112,0.0,0.0,88,0.00,,---,0.00,VWS V14.01,2013-03-28 09:42:00,
2013-03-28 02:47:00,49.8,46.4,29.94,ESE,112,0.0,0.0,88,0.00,,---,0.00,VWS V14.01,2013-03-28 09:47:00,
2013-03-28 02:53:00,49.8,46.7,29.94,ESE,112,0.0,0.0,89,0.00,,---,0.00,VWS V14.01,2013-03-28 09:53:00,
2013-03-28 02:58:00,49.8,46.7,29.94,ESE,112,0.0,0.0,89,0.00,,---,0.00,VWS V14.01,2013-03-28 09:58:00,
2013-03-28 03:03:00,49.8,46.4,29.94,ESE,112,0.0,0.0,88,0.00,,---,0.00,VWS V14.01,2013-03-28 10:03:00,
2013-03-28 03:08:00,49.8,46.4,29.94,ESE,112,0.0,0.0,88,0.00,,---,0.00,VWS V14.01,2013-03-28 10:08:00,
2013-03-28 03:14:00,49.6,46.5,29.94,ESE,112,0.0,0.0,89,0.00,,---,0.00,VWS V14.01,2013-03-28 10:14:00,
2013-03-28 03:19:00,49.5,46.4,29.94,ESE,112,0.0,0.0,89,0.00,,---,0.00,VWS V14.01,2013-03-28 10:19:00,
2013-03-28 03:24:00,49.5,46.4,29.94,ESE,112,0.0,0.0,89,0.00,,---,0.00,VWS V14.01,2013-03-28 10:24:00,
2013-03-28 03:29:00,49.5,46.4,29.94,ESE,112,0.0,0.0,89,0.00,,---,0.00,VWS V14.01,2013-03-28 10:29:00,
2013-03-28 03:34:00,49.5,46.4,29.94,ESE,112,0.0,0.0,89,0.00,,---,0.00,VWS V14.01,2013-03-28 10:34:00,
2013-03-28 03:39:00,49.3,46.2,29.94,ESE,112,0.0,0.0,89,0.00,,---,0.00,VWS V14.01,2013-03-28 10:39:00,
2013-03-28 03:44:00,49.3,46.2,29.94,ESE,112,0.0,0.0,89,0.00,,---,0.00,VWS V14.01,2013-03-28 10:44:00,
2013-03-28 03:50:00,49.3,46.2,29.94,ESE,112,0.0,0.0,89,0.00,,---,0.00,VWS V14.01,2013-03-28 10:50:00,
2013-03-28 03:55:00,49.3,46.2,29.94,ESE,112,0.0,0.0,89,0.00,,---,0.00,VWS V14.01,2013-03-28 10:55:00,
2013-03-28 04:00:00,49.3,46.2,29.94,ESE,112,0.0,0.0,89,0.00,,---,0.00,VWS V14.01,2013-03-28 11:00:00,
2013-03-28 04:05:00,49.3,46.5,29.94,ESE,112,0.0,0.0,90,0.00,,---,0.00,VWS V14.01,2013-03-28 11:05:00,
2013-03-28 04:10:00,49.3,46.5,29.94,ESE,112,0.0,0.0,90,0.00,,---,0.00,VWS V14.01,2013-03-28 11:10:00,
2013-03-28 04:15:00,49.3,46.5,29.94,ESE,112,0.0,0.0,90,0.00,,---,0.00,VWS V14.01,2013-03-28 11:15:00,
2013-03-28 04:20:00,49.3,46.5,29.94,ESE,112,0.0,0.0,90,0.00,,---,0.00,VWS V14.01,2013-03-28 11:20:00,
2013-03-28 04:26:00,49.3,46.5,29.94,ESE,112,0.0,0.0,90,0.00,,---,0.00,VWS V14.01,2013-03-28 11:26:00,
2013-03-28 04:32:00,49.3,46.5,29.94,ESE,112,0.0,0.0,90,0.00,,---,0.00,VWS V14.01,2013-03-28 11:32:00,
2013-03-28 04:37:00,49.3,46.8,29.94,ESE,112,0.0,0.0,91,0.00,,---,0.00,VWS V14.01,2013-03-28 11:37:00,
2013-03-28 04:42:00,49.3,46.8,29.94,ESE,112,0.0,0.0,91,0.00,,---,0.00,VWS V14.01,2013-03-28 11:42:00,
2013-03-28 04:47:00,49.3,46.8,29.94,ESE,112,0.0,0.0,91,0.00,,---,0.00,VWS V14.01,2013-03-28 11:47:00,
2013-03-28 04:52:00,49.3,46.8,29.94,ESE,112,0.0,0.0,91,0.00,,---,0.00,VWS V14.01,2013-03-28 11:52:00,
2013-03-28 04:58:00,49.3,46.8,29.94,ESE,112,0.0,0.0,91,0.00,,---,0.00,VWS V14.01,2013-03-28 11:58:00,
2013-03-28 05:03:00,49.3,46.8,29.94,ESE,112,0.0,0.0,91,0.00,,---,0.00,VWS V14.01,2013-03-28 12:03:00,
2013-03-28 05:08:00,49.3,46.8,29.94,ESE,112,0.0,0.0,91,0.00,,---,0.00,VWS V14.01,2013-03-28 12:08:00,
2013-03-28 05:13:00,49.5,47.0,29.94,SE,135,0.0,0.0,91,0.00,,---,0.00,VWS V14.01,2013-03-28 12:13:00,
2013-03-28 05:18:00,49.5,47.0,29.94,SE,135,0.0,0.0,91,0.00,,---,0.00,VWS V14.01,2013-03-28 12:18:00,
2013-03-28 05:23:00,49.5,47.0,29.94,SE,135,0.0,0.0,91,0.00,,---,0.00,VWS V14.01,2013-03-28 12:23:00,
2013-03-28 05:28:00,49.5,47.0,29.94,SE,135,0.0,0.0,91,0.00,,---,0.00,VWS V14.01,2013-03-28 12:28:00,
2013-03-28 05:34:00,49.5,47.0,29.94,SE,135,0.0,0.0,91,0.00,,---,0.00,VWS V14.01,2013-03-28 12:34:00,
2013-03-28 05:39:00,49.5,47.0,29.94,ESE,112,0.0,0.0,91,0.00,,---,0.00,VWS V14.01,2013-03-28 12:39:00,
2013-03-28 05:44:00,49.5,47.0,29.94,ESE,112,0.0,0.0,91,0.00,,---,0.00,VWS V14.01,2013-03-28 12:44:00,
2013-03-28 05:49:00,49.5,47.0,29.94,ESE,112,0.0,0.0,91,0.00,,---,0.00,VWS V14.01,2013-03-28 12:49:00,
2013-03-28 05:54:00,49.3,46.8,29.94,ESE,112,0.0,0.0,91,0.00,,---,0.00,VWS V14.01,2013-03-28 12:54:00,
2013-03-28 05:59:00,49.3,46.8,29.94,ESE,112,0.0,0.0,91,0.00,,---,0.00,VWS V14.01,2013-03-28 12:59:00,
2013-03-28 06:04:00,49.3,46.8,29.94,ESE,112,0.0,0.0,91,0.00,,---,0.00,VWS V14.01,2013-03-28 13:04:00,
2013-03-28 06:10:00,49.3,46.8,29.94,ESE,112,0.0,0.0,91,0.00,,---,0.00,VWS V14.01,2013-03-28 13:10:00,
2013-03-28 06:15:00,49.3,46.8,29.94,ESE,112,0.0,0.0,91,0.00,,---,0.00,VWS V14.01,2013-03-28 13:15:00,
2013-03-28 06:20:00,49.3,46.8,29.94,ESE,112,0.0,0.0,91,0.00,,---,0.00,VWS V14.01,2013-03-28 13:20:00,
2013-03-28 06:25:00,49.3,46.8,29.94,ESE,112,0.0,0.0,91,0.00,,---,0.00,VWS V14.01,2013-03-28 13:25:00,
2013-03-28 06:30:00,49.3,46.8,29.94,ESE,112,0.0,0.0,91,0.00,,---,0.00,VWS V14.01,2013-03-28 13:30:00,
2013-03-28 06:35:00,49.3,46.8,29.94,ESE,112,0.0,0.0,91,0.00,,---,0.00,VWS V14.01,2013-03-28 13:35:00,
2013-03-28 06:40:00,49.1,46.9,29.94,ESE,112,0.0,0.0,92,0.00,,---,0.00,VWS V14.01,2013-03-28 13:40:00,
2013-03-28 06:45:00,49.1,46.9,29.94,ESE,112,0.0,0.0,92,0.00,,---,0.00,VWS V14.01,2013-03-28 13:45:00,
2013-03-28 06:51:00,49.1,46.9,29.94,ESE,112,0.0,0.0,92,0.00,,---,0.00,VWS V14.01,2013-03-28 13:51:00,
2013-03-28 06:56:00,49.1,46.9,29.94,ESE,112,0.0,0.0,92,0.00,,---,0.00,VWS V14.01,2013-03-28 13:56:00,
2013-03-28 07:01:00,49.1,46.9,29.94,ESE,112,0.0,0.0,92,0.00,,---,0.00,VWS V14.01,2013-03-28 14:01:00,
2013-03-28 07:06:00,49.1,46.9,29.94,ESE,112,0.0,0.0,92,0.00,,---,0.00,VWS V14.01,2013-03-28 14:06:00,
2013-03-28 07:11:00,49.1,46.9,29.94,ESE,112,0.0,0.0,92,0.00,,---,0.00,VWS V14.01,2013-03-28 14:11:00,
2013-03-28 07:16:00,49.1,46.9,29.97,ESE,112,0.0,0.0,92,0.00,,---,0.00,VWS V14.01,2013-03-28 14:16:00,
2013-03-28 07:21:00,49.1,46.9,29.97,ESE,112,0.0,0.0,92,0.00,,---,0.00,VWS V14.01,2013-03-28 14:21:00,
2013-03-28 07:26:00,49.1,46.9,29.97,ESE,112,0.0,0.0,92,0.00,,---,0.00,VWS V14.01,2013-03-28 14:26:00,
2013-03-28 07:32:00,49.1,46.9,29.97,ESE,112,0.0,0.0,92,0.00,,---,0.00,VWS V14.01,2013-03-28 14:32:00,
2013-03-28 07:37:00,49.1,46.9,29.97,ESE,112,0.0,0.0,92,0.00,,---,0.00,VWS V14.01,2013-03-28 14:37:00,
2013-03-28 07:42:00,49.1,46.9,29.97,ESE,112,0.0,0.0,92,0.00,,---,0.00,VWS V14.01,2013-03-28 14:42:00,
2013-03-28 07:47:00,49.1,46.9,29.97,ESE,112,0.0,0.0,92,0.00,,---,0.00,VWS V14.01,2013-03-28 14:47:00,
2013-03-28 07:52:00,49.1,47.2,29.97,ESE,112,0.0,0.0,93,0.00,,---,0.00,VWS V14.01,2013-03-28 14:52:00,
2013-03-28 07:58:00,49.3,47.3,29.97,ESE,112,0.0,0.0,93,0.00,,---,0.00,VWS V14.01,2013-03-28 14:58:00,
2013-03-28 08:03:00,49.5,47.5,29.97,ESE,112,0.0,0.0,93,0.00,,---,0.00,VWS V14.01,2013-03-28 15:03:00,
2013-03-28 08:08:00,49.6,47.4,29.97,ESE,112,0.0,0.0,92,0.00,,---,0.00,VWS V14.01,2013-03-28 15:08:00,
2013-03-28 08:13:00,49.8,47.6,29.97,ESE,112,0.0,0.0,92,0.00,,---,0.00,VWS V14.01,2013-03-28 15:13:00,
2013-03-28 08:18:00,50.0,47.8,29.97,ESE,112,0.0,0.0,92,0.00,,---,0.00,VWS V14.01,2013-03-28 15:18:00,
2013-03-28 08:23:00,50.0,47.8,29.97,ESE,112,0.0,0.0,92,0.00,,---,0.00,VWS V14.01,2013-03-28 15:23:00,
2013-03-28 08:28:00,50.2,48.0,29.97,WNW,292,0.0,1.3,92,0.00,,---,0.00,VWS V14.01,2013-03-28 15:28:00,
2013-03-28 08:34:00,50.2,48.0,29.97,NNW,338,0.0,0.9,92,0.00,,---,0.00,VWS V14.01,2013-03-28 15:34:00,
2013-03-28 08:39:00,50.4,48.1,29.97,NNW,338,0.0,0.9,92,0.00,,---,0.00,VWS V14.01,2013-03-28 15:39:00,
2013-03-28 08:44:00,50.5,48.3,29.97,ENE,68,0.0,0.0,92,0.00,,---,0.00,VWS V14.01,2013-03-28 15:44:00,
2013-03-28 08:49:00,50.7,48.5,29.97,East,90,0.0,0.0,92,0.00,,---,0.00,VWS V14.01,2013-03-28 15:49:00,
2013-03-28 08:55:00,50.9,48.7,29.97,NNW,338,0.0,0.0,92,0.00,,---,0.00,VWS V14.01,2013-03-28 15:55:00,
2013-03-28 09:00:00,50.9,48.4,29.97,ESE,112,0.0,0.0,91,0.00,,---,0.00,VWS V14.01,2013-03-28 16:00:00,
2013-03-28 09:05:00,51.1,48.5,29.97,NE,45,0.0,1.1,91,0.00,,---,0.00,VWS V14.01,2013-03-28 16:05:00,
2013-03-28 09:10:00,51.3,48.7,29.97,ESE,112,0.0,2.2,91,0.00,,---,0.00,VWS V14.01,2013-03-28 16:10:00,
2013-03-28 09:15:00,51.4,48.9,30.00,NW,315,0.0,0.0,91,0.00,,---,0.00,VWS V14.01,2013-03-28 16:15:00,
2013-03-28 09:21:00,51.4,48.9,30.00,NNW,338,0.0,1.1,91,0.00,,---,0.00,VWS V14.01,2013-03-28 16:21:00,
2013-03-28 09:26:00,51.6,48.8,30.00,NW,315,0.0,1.1,90,0.00,,---,0.00,VWS V14.01,2013-03-28 16:26:00,
2013-03-28 09:32:00,51.6,48.8,30.00,North,0,0.0,0.0,90,0.00,,---,0.00,VWS V14.01,2013-03-28 16:32:00,
2013-03-28 09:37:00,51.6,48.8,30.00,North,0,0.0,0.0,90,0.00,,---,0.00,VWS V14.01,2013-03-28 16:37:00,
2013-03-28 09:42:00,51.6,48.8,30.00,NNW,338,2.7,2.7,90,0.00,,---,0.00,VWS V14.01,2013-03-28 16:42:00,
2013-03-28 09:47:00,51.8,49.0,30.00,NNW,338,0.0,2.7,90,0.00,,---,0.00,VWS V14.01,2013-03-28 16:47:00,
2013-03-28 09:52:00,52.0,49.1,30.00,NNW,338,0.0,0.9,90,0.00,,---,0.00,VWS V14.01,2013-03-28 16:52:00,
2013-03-28 09:57:00,51.8,48.7,30.00,WNW,292,0.0,0.9,89,0.00,,---,0.00,VWS V14.01,2013-03-28 16:57:00,
2013-03-28 10:02:00,51.8,48.7,30.00,NNW,338,0.0,0.9,89,0.00,,---,0.00,VWS V14.01,2013-03-28 17:02:00,
2013-03-28 10:08:00,52.3,49.2,30.00,NNW,338,0.0,0.9,89,0.00,,---,0.00,VWS V14.01,2013-03-28 17:08:00,
2013-03-28 10:13:00,52.5,49.4,30.00,WNW,292,2.5,2.5,89,0.00,,---,0.00,VWS V14.01,2013-03-28 17:13:00,
2013-03-28 10:18:00,52.3,48.9,30.00,WNW,292,2.0,4.3,88,0.00,,---,0.00,VWS V14.01,2013-03-28 17:18:00,
2013-03-28 10:23:00,52.5,49.1,30.00,NNW,338,0.0,3.6,88,0.00,,---,0.00,VWS V14.01,2013-03-28 17:23:00,
2013-03-28 10:28:00,52.7,49.2,30.00,North,0,0.0,3.6,88,0.00,,---,0.00,VWS V14.01,2013-03-28 17:28:00,
2013-03-28 10:33:00,52.5,49.1,30.03,WNW,292,1.6,2.2,88,0.00,,---,0.00,VWS V14.01,2013-03-28 17:33:00,
2013-03-28 10:38:00,52.9,49.4,30.03,WNW,292,0.9,2.2,88,0.00,,---,0.00,VWS V14.01,2013-03-28 17:38:00,
2013-03-28 10:44:00,53.1,49.6,30.03,NW,315,1.6,2.5,88,0.00,,---,0.00,VWS V14.01,2013-03-28 17:44:00,
2013-03-28 10:49:00,53.2,49.8,30.03,NNW,338,2.5,3.1,88,0.00,,---,0.00,VWS V14.01,2013-03-28 17:49:00,
2013-03-28 10:54:00,53.4,49.7,30.03,NNW,338,1.1,3.6,87,0.00,,---,0.00,VWS V14.01,2013-03-28 17:54:00,
2013-03-28 10:59:00,53.8,49.7,30.03,NNW,338,0.0,3.6,86,0.00,,---,0.00,VWS V14.01,2013-03-28 17:59:00,
2013-03-28 11:04:00,54.1,50.0,30.03,NNW,338,0.9,1.6,86,0.00,,---,0.00,VWS V14.01,2013-03-28 18:04:00,
2013-03-28 11:10:00,53.8,49.4,30.03,NNW,338,0.0,2.9,85,0.00,,---,0.00,VWS V14.01,2013-03-28 18:10:00,
2013-03-28 11:15:00,53.6,49.2,30.03,NNW,338,0.0,2.5,85,0.00,,---,0.00,VWS V14.01,2013-03-28 18:15:00,
2013-03-28 11:20:00,53.6,49.2,30.03,NNW,338,3.6,3.6,85,0.00,,---,0.00,VWS V14.01,2013-03-28 18:20:00,
2013-03-28 11:25:00,54.0,49.6,30.03,NNW,338,0.0,3.6,85,0.00,,---,0.00,VWS V14.01,2013-03-28 18:25:00,
2013-03-28 11:30:00,54.1,49.7,30.03,NNE,22,0.0,0.0,85,0.00,,---,0.00,VWS V14.01,2013-03-28 18:30:00,
2013-03-28 11:35:00,54.5,49.8,30.03,NNW,338,2.2,3.1,84,0.00,,---,0.00,VWS V14.01,2013-03-28 18:35:00,
2013-03-28 11:40:00,54.5,49.8,30.03,WNW,292,0.0,0.0,84,0.00,,---,0.00,VWS V14.01,2013-03-28 18:40:00,
2013-03-28 11:45:00,55.2,50.5,30.03,NNE,22,0.0,1.3,84,0.00,,---,0.00,VWS V14.01,2013-03-28 18:45:00,
2013-03-28 11:51:00,55.4,50.7,30.03,NNW,338,1.6,1.6,84,0.00,,---,0.00,VWS V14.01,2013-03-28 18:51:00,
2013-03-28 11:56:00,55.4,50.3,30.03,WNW,292,2.5,2.7,83,0.00,,---,0.00,VWS V14.01,2013-03-28 18:56:00,
2013-03-28 12:01:00,55.6,50.5,30.03,NNW,338,2.5,3.6,83,0.00,,---,0.00,VWS V14.01,2013-03-28 19:01:00,
2013-03-28 12:07:00,55.8,50.4,30.03,WNW,292,4.3,4.3,82,0.00,,---,0.00,VWS V14.01,2013-03-28 19:07:00,
2013-03-28 12:12:00,55.8,50.0,30.03,NNW,338,2.2,4.3,81,0.00,,---,0.00,VWS V14.01,2013-03-28 19:12:00,
2013-03-28 12:17:00,55.9,50.2,30.03,NNW,338,2.0,4.3,81,0.00,,---,0.00,VWS V14.01,2013-03-28 19:17:00,
2013-03-28 12:22:00,56.1,50.4,30.03,NNW,338,0.0,0.0,81,0.00,,---,0.00,VWS V14.01,2013-03-28 19:22:00,
2013-03-28 12:27:00,56.5,50.7,30.03,WNW,292,0.0,1.6,81,0.00,,---,0.00,VWS V14.01,2013-03-28 19:27:00,
2013-03-28 12:33:00,55.9,49.9,30.03,WNW,292,0.0,2.9,80,0.00,,---,0.00,VWS V14.01,2013-03-28 19:33:00,
2013-03-28 12:38:00,55.4,49.0,30.03,WNW,292,2.5,3.1,79,0.00,,---,0.00,VWS V14.01,2013-03-28 19:38:00,
2013-03-28 12:43:00,54.9,48.8,30.03,WNW,292,0.0,2.5,80,0.00,,---,0.00,VWS V14.01,2013-03-28 19:43:00,
2013-03-28 12:48:00,54.9,49.5,30.03,WNW,292,1.6,3.6,82,0.00,,---,0.00,VWS V14.01,2013-03-28 19:48:00,
2013-03-28 12:54:00,54.7,49.3,30.03,NW,315,0.0,2.5,82,0.00,,---,0.00,VWS V14.01,2013-03-28 19:54:00,
2013-03-28 12:59:00,55.0,49.7,30.03,NNE,22,0.0,2.5,82,0.00,,---,0.00,VWS V14.01,2013-03-28 19:59:00,
2013-03-28 13:04:00,55.8,50.7,30.03,WSW,248,0.0,0.0,83,0.00,,---,0.00,VWS V14.01,2013-03-28 20:04:00,
2013-03-28 13:09:00,56.1,51.0,30.03,SE,135,0.0,0.0,83,0.00,,---,0.00,VWS V14.01,2013-03-28 20:09:00,
2013-03-28 13:15:00,56.5,51.1,30.03,WNW,292,0.0,2.0,82,0.00,,---,0.00,VWS V14.01,2013-03-28 20:15:00,
2013-03-28 13:20:00,56.3,50.2,30.03,WNW,292,2.0,3.1,80,0.00,,---,0.00,VWS V14.01,2013-03-28 20:20:00,
2013-03-28 13:25:00,56.3,50.2,30.03,NW,315,1.6,4.3,80,0.00,,---,0.00,VWS V14.01,2013-03-28 20:25:00,
2013-03-28 13:30:00,55.9,49.5,30.03,WNW,292,3.1,3.1,79,0.00,,---,0.00,VWS V14.01,2013-03-28 20:30:00,
2013-03-28 13:35:00,55.8,49.4,30.03,NNW,338,2.7,4.0,79,0.00,,---,0.00,VWS V14.01,2013-03-28 20:35:00,
2013-03-28 13:40:00,55.9,49.5,30.03,NNW,338,0.0,1.3,79,0.00,,---,0.00,VWS V14.01,2013-03-28 20:40:00,
2013-03-28 13:46:00,55.4,48.7,30.03,West,270,3.1,3.6,78,0.00,,---,0.00,VWS V14.01,2013-03-28 20:46:00,
2013-03-28 13:52:00,55.6,49.2,30.03,WNW,292,2.5,2.7,79,0.00,,---,0.00,VWS V14.01,2013-03-28 20:52:00,
2013-03-28 13:57:00,55.4,48.7,30.03,WNW,292,2.0,2.7,78,0.00,,---,0.00,VWS V14.01,2013-03-28 20:57:00,
2013-03-28 14:02:00,55.2,48.8,30.03,WNW,292,3.8,3.8,79,0.00,,---,0.00,VWS V14.01,2013-03-28 21:02:00,
2013-03-28 14:07:00,54.7,48.3,30.03,NW,315,5.4,5.4,79,0.00,,---,0.00,VWS V14.01,2013-03-28 21:07:00,
2013-03-28 14:12:00,55.0,49.0,30.03,WNW,292,1.6,2.0,80,0.00,,---,0.00,VWS V14.01,2013-03-28 21:12:00,
2013-03-28 14:17:00,55.4,49.3,30.03,WNW,292,0.0,3.6,80,0.00,,---,0.00,VWS V14.01,2013-03-28 21:17:00,
2013-03-28 14:22:00,55.9,50.2,30.03,NNW,338,3.4,3.4,81,0.00,,---,0.00,VWS V14.01,2013-03-28 21:22:00,
2013-03-28 14:27:00,56.7,50.6,30.03,WSW,248,0.9,3.4,80,0.00,,---,0.00,VWS V14.01,2013-03-28 21:27:00,
2013-03-28 14:32:00,57.2,50.8,30.03,WSW,248,2.5,3.4,79,0.00,,---,0.00,VWS V14.01,2013-03-28 21:32:00,
2013-03-28 14:38:00,57.6,50.8,30.03,WSW,248,1.6,3.4,78,0.00,,---,0.00,VWS V14.01,2013-03-28 21:38:00,
2013-03-28 14:43:00,57.2,49.7,30.03,WSW,248,2.9,3.1,76,0.00,,---,0.00,VWS V14.01,2013-03-28 21:43:00,
2013-03-28 14:48:00,56.7,49.2,30.03,North,0,3.8,4.3,76,0.00,,---,0.00,VWS V14.01,2013-03-28 21:48:00,
2013-03-28 14:53:00,56.3,48.5,30.03,WSW,248,2.7,3.6,75,0.00,,---,0.00,VWS V14.01,2013-03-28 21:53:00,
2013-03-28 14:58:00,56.3,48.5,30.03,WSW,248,2.9,3.8,75,0.00,,---,0.00,VWS V14.01,2013-03-28 21:58:00,
2013-03-28 15:03:00,55.8,48.0,30.03,WNW,292,1.1,5.4,75,0.00,,---,0.00,VWS V14.01,2013-03-28 22:03:00,
2013-03-28 15:08:00,55.4,47.6,30.03,WNW,292,2.9,5.4,75,0.00,,---,0.00,VWS V14.01,2013-03-28 22:08:00,
2013-03-28 15:14:00,55.4,47.6,30.03,WNW,292,0.9,2.7,75,0.00,,---,0.00,VWS V14.01,2013-03-28 22:14:00,
2013-03-28 15:19:00,55.4,48.3,30.03,WNW,292,4.0,5.4,77,0.00,,---,0.00,VWS V14.01,2013-03-28 22:19:00,
2013-03-28 15:24:00,54.7,47.6,30.03,NNW,338,4.0,4.3,77,0.00,,---,0.00,VWS V14.01,2013-03-28 22:24:00,
2013-03-28 15:29:00,54.7,48.0,30.03,WNW,292,2.9,4.3,78,0.00,,---,0.00,VWS V14.01,2013-03-28 22:29:00,
2013-03-28 15:35:00,54.9,48.5,30.03,West,270,1.1,2.9,79,0.00,,---,0.00,VWS V14.01,2013-03-28 22:35:00,
2013-03-28 15:40:00,54.0,47.3,30.03,WNW,292,4.0,4.0,78,0.00,,---,0.00,VWS V14.01,2013-03-28 22:40:00,
2013-03-28 15:45:00,54.3,48.0,30.03,WNW,292,5.6,5.6,79,0.00,,---,0.00,VWS V14.01,2013-03-28 22:45:00,
2013-03-28 15:51:00,55.4,49.0,30.03,NNW,338,2.0,2.0,79,0.00,,---,0.00,VWS V14.01,2013-03-28 22:51:00,
2013-03-28 15:56:00,55.0,48.0,30.03,WSW,248,0.9,5.4,77,0.00,,---,0.00,VWS V14.01,2013-03-28 22:56:00,
2013-03-28 16:01:00,55.0,48.0,30.03,NNW,338,4.7,4.7,77,0.00,,---,0.00,VWS V14.01,2013-03-28 23:01:00,
2013-03-28 16:06:00,55.4,48.3,30.03,WNW,292,1.6,5.8,77,0.00,,---,0.00,VWS V14.01,2013-03-28 23:06:00,
2013-03-28 16:11:00,55.9,48.8,30.03,NW,315,1.6,2.2,77,0.00,,---,0.00,VWS V14.01,2013-03-28 23:11:00,
2013-03-28 16:17:00,55.9,47.8,30.03,WNW,292,2.5,3.1,74,0.00,,---,0.00,VWS V14.01,2013-03-28 23:17:00,
2013-03-28 16:22:00,56.1,48.3,30.03,WNW,292,1.3,3.4,75,0.00,,---,0.00,VWS V14.01,2013-03-28 23:22:00,
2013-03-28 16:27:00,56.3,48.5,30.03,NW,315,2.7,4.0,75,0.00,,---,0.00,VWS V14.01,2013-03-28 23:27:00,
2013-03-28 16:32:00,56.1,48.0,30.03,WNW,292,4.3,5.6,74,0.00,,---,0.00,VWS V14.01,2013-03-28 23:32:00,
2013-03-28 16:37:00,55.8,47.2,30.03,NW,315,3.8,5.6,73,0.00,,---,0.00,VWS V14.01,2013-03-28 23:37:00,
2013-03-28 16:42:00,55.6,47.4,30.03,WNW,292,2.7,2.9,74,0.00,,---,0.00,VWS V14.01,2013-03-28 23:42:00,
2013-03-28 16:47:00,56.1,48.3,30.03,WNW,292,2.5,3.6,75,0.00,,---,0.00,VWS V14.01,2013-03-28 23:47:00,
2013-03-28 16:53:00,55.6,47.8,30.03,WNW,292,3.4,3.4,75,0.00,,---,0.00,VWS V14.01,2013-03-28 23:53:00,
2013-03-28 16:58:00,54.5,46.8,30.03,NW,315,3.6,3.6,75,0.00,,---,0.00,VWS V14.01,2013-03-28 23:58:00,
2013-03-28 17:03:00,54.1,47.1,30.03,WNW,292,3.8,5.4,77,0.00,,---,0.00,VWS V14.01,2013-03-29 00:03:00,
2013-03-28 17:08:00,54.0,47.6,30.03,NW,315,2.0,5.6,79,0.00,,---,0.00,VWS V14.01,2013-03-29 00:08:00,
2013-03-28 17:13:00,53.8,47.8,30.03,NW,315,3.6,6.5,80,0.00,,---,0.00,VWS V14.01,2013-03-29 00:13:00,
2013-03-28 17:19:00,53.8,48.1,30.03,WNW,292,0.0,6.5,81,0.00,,---,0.00,VWS V14.01,2013-03-29 00:19:00,
2013-03-28 17:24:00,53.8,48.1,30.03,NW,315,2.9,4.0,81,0.00,,---,0.00,VWS V14.01,2013-03-29 00:24:00,
2013-03-28 17:29:00,54.1,48.5,30.03,WNW,292,1.6,4.0,81,0.00,,---,0.00,VWS V14.01,2013-03-29 00:29:00,
2013-03-28 17:34:00,54.5,48.8,30.03,WNW,292,2.7,3.4,81,0.00,,---,0.00,VWS V14.01,2013-03-29 00:34:00,
2013-03-28 17:39:00,54.5,48.5,30.03,NNW,338,2.0,3.4,80,0.00,,---,0.00,VWS V14.01,2013-03-29 00:39:00,
2013-03-28 17:45:00,54.1,48.1,30.03,WNW,292,3.1,3.1,80,0.00,,---,0.00,VWS V14.01,2013-03-29 00:45:00,
2013-03-28 17:50:00,54.0,48.3,30.03,West,270,1.3,3.1,81,0.00,,---,0.00,VWS V14.01,2013-03-29 00:50:00,
2013-03-28 17:55:00,53.8,48.4,30.03,NNW,338,1.3,3.4,82,0.00,,---,0.00,VWS V14.01,2013-03-29 00:55:00,
2013-03-28 18:00:00,53.2,48.2,30.03,WNW,292,0.9,3.8,83,0.00,,---,0.00,VWS V14.01,2013-03-29 01:00:00,
2013-03-28 18:05:00,53.2,48.5,30.03,NNW,338,2.2,3.6,84,0.00,,---,0.00,VWS V14.01,2013-03-29 01:05:00,
2013-03-28 18:10:00,53.2,48.2,30.03,NW,315,2.5,2.5,83,0.00,,---,0.00,VWS V14.01,2013-03-29 01:10:00,
2013-03-28 18:15:00,53.2,48.5,30.03,WNW,292,2.9,2.9,84,0.00,,---,0.00,VWS V14.01,2013-03-29 01:15:00,
2013-03-28 18:20:00,53.1,48.4,30.03,WSW,248,0.9,0.9,84,0.00,,---,0.00,VWS V14.01,2013-03-29 01:20:00,
2013-03-28 18:26:00,53.1,48.4,30.03,WNW,292,2.0,2.0,84,0.00,,---,0.00,VWS V14.01,2013-03-29 01:26:00,
2013-03-28 18:31:00,53.2,48.5,30.03,NW,315,0.0,0.0,84,0.00,,---,0.00,VWS V14.01,2013-03-29 01:31:00,
2013-03-28 18:37:00,52.9,47.9,30.03,West,270,4.9,5.6,83,0.00,,---,0.00,VWS V14.01,2013-03-29 01:37:00,
2013-03-28 18:42:00,52.7,48.0,30.03,WNW,292,2.9,3.1,84,0.00,,---,0.00,VWS V14.01,2013-03-29 01:42:00,
2013-03-28 18:47:00,52.7,48.0,30.06,NW,315,4.3,4.3,84,0.00,,---,0.00,VWS V14.01,2013-03-29 01:47:00,
2013-03-28 18:52:00,52.7,48.0,30.06,WNW,292,2.0,2.9,84,0.00,,---,0.00,VWS V14.01,2013-03-29 01:52:00,
2013-03-28 18:57:00,52.5,47.8,30.06,WNW,292,2.9,2.9,84,0.00,,---,0.00,VWS V14.01,2013-03-29 01:57:00,
2013-03-28 19:03:00,52.5,47.8,30.06,NW,315,3.1,3.1,84,0.00,,---,0.00,VWS V14.01,2013-03-29 02:03:00,
2013-03-28 19:08:00,52.3,47.3,30.06,WNW,292,2.7,3.4,83,0.00,,---,0.00,VWS V14.01,2013-03-29 02:08:00,
2013-03-28 19:13:00,52.3,47.3,30.06,WNW,292,3.6,3.6,83,0.00,,---,0.00,VWS V14.01,2013-03-29 02:13:00,
2013-03-28 19:19:00,52.2,47.2,30.06,WNW,292,2.9,3.6,83,0.00,,---,0.00,VWS V14.01,2013-03-29 02:19:00,
2013-03-28 19:24:00,52.2,47.2,30.06,WNW,292,0.0,1.6,83,0.00,,---,0.00,VWS V14.01,2013-03-29 02:24:00,
2013-03-28 19:29:00,52.2,47.2,30.06,NNW,338,0.0,2.5,83,0.00,,---,0.00,VWS V14.01,2013-03-29 02:29:00,
2013-03-28 19:34:00,52.0,47.0,30.06,NW,315,0.0,2.0,83,0.00,,---,0.00,VWS V14.01,2013-03-29 02:34:00,
2013-03-28 19:39:00,51.8,46.8,30.06,NW,315,0.9,2.0,83,0.00,,---,0.00,VWS V14.01,2013-03-29 02:39:00,
2013-03-28 19:44:00,51.8,46.8,30.06,WNW,292,1.3,2.7,83,0.00,,---,0.00,VWS V14.01,2013-03-29 02:44:00,
2013-03-28 19:49:00,51.6,47.0,30.06,NW,315,1.1,3.1,84,0.00,,---,0.00,VWS V14.01,2013-03-29 02:49:00,
2013-03-28 19:54:00,51.6,47.0,30.06,NW,315,0.0,2.0,84,0.00,,---,0.00,VWS V14.01,2013-03-29 02:54:00,
2013-03-28 20:00:00,51.6,47.0,30.06,NW,315,0.0,2.0,84,0.00,,---,0.00,VWS V14.01,2013-03-29 03:00:00,
2013-03-28 20:05:00,51.6,47.3,30.06,NNW,338,0.0,1.1,85,0.00,,---,0.00,VWS V14.01,2013-03-29 03:05:00,
2013-03-28 20:10:00,51.6,47.3,30.06,NNW,338,0.0,0.0,85,0.00,,---,0.00,VWS V14.01,2013-03-29 03:10:00,
2013-03-28 20:15:00,51.6,47.3,30.06,WNW,292,0.0,0.0,85,0.00,,---,0.00,VWS V14.01,2013-03-29 03:15:00,
2013-03-28 20:20:00,51.4,47.1,30.06,NNW,338,0.0,0.0,85,0.00,,---,0.00,VWS V14.01,2013-03-29 03:20:00,
2013-03-28 20:25:00,51.4,47.1,30.06,NNW,338,0.0,0.0,85,0.00,,---,0.00,VWS V14.01,2013-03-29 03:25:00,
2013-03-28 20:30:00,51.4,47.1,30.06,NNW,338,0.0,1.6,85,0.00,,---,0.00,VWS V14.01,2013-03-29 03:30:00,
2013-03-28 20:35:00,51.4,47.1,30.06,NW,315,0.0,0.0,85,0.00,,---,0.00,VWS V14.01,2013-03-29 03:35:00,
2013-03-28 20:40:00,51.4,47.1,30.06,NNW,338,0.0,0.0,85,0.00,,---,0.00,VWS V14.01,2013-03-29 03:40:00,
2013-03-28 20:46:00,51.4,47.4,30.09,WNW,292,0.0,0.9,86,0.00,,---,0.00,VWS V14.01,2013-03-29 03:46:00,
2013-03-28 20:51:00,51.4,47.4,30.09,NNE,22,0.0,0.0,86,0.00,,---,0.00,VWS V14.01,2013-03-29 03:51:00,
2013-03-28 20:56:00,51.4,47.4,30.09,NNE,22,0.0,0.0,86,0.00,,---,0.00,VWS V14.01,2013-03-29 03:56:00,
2013-03-28 21:00:00,51.4,47.4,30.06,NW,315,0.0,0.0,86,0.00,,---,0.00,VWS V14.01,2013-03-29 04:00:00,
2013-03-28 21:03:00,51.4,47.4,30.06,NNW,338,0.0,0.0,86,0.00,,---,0.00,VWS V14.01,2013-03-29 04:03:00,
2013-03-28 21:04:00,51.3,47.2,30.06,NNW,338,0.0,0.0,86,0.00,,---,0.00,VWS V14.01,2013-03-29 04:04:00,
2013-03-28 21:09:00,51.3,47.2,30.06,NNW,338,0.0,0.0,86,0.00,,---,0.00,VWS V14.01,2013-03-29 04:09:00,
2013-03-28 21:14:00,51.4,47.4,30.09,NNW,338,0.0,0.0,86,0.00,,---,0.00,VWS V14.01,2013-03-29 04:14:00,
2013-03-28 21:20:00,51.4,47.4,30.09,NW,315,0.0,0.0,86,0.00,,---,0.00,VWS V14.01,2013-03-29 04:20:00,
2013-03-28 21:25:00,51.4,47.4,30.09,NW,315,0.0,0.0,86,0.00,,---,0.00,VWS V14.01,2013-03-29 04:25:00,
2013-03-28 21:30:00,51.4,47.7,30.09,NW,315,0.0,0.0,87,0.00,,---,0.00,VWS V14.01,2013-03-29 04:30:00,
2013-03-28 21:35:00,51.4,47.7,30.09,NW,315,0.0,0.0,87,0.00,,---,0.00,VWS V14.01,2013-03-29 04:35:00,
2013-03-28 21:40:00,51.4,47.7,30.09,NW,315,0.0,0.0,87,0.00,,---,0.00,VWS V14.01,2013-03-29 04:40:00,
2013-03-28 21:45:00,51.3,47.8,30.09,NNW,338,0.0,1.6,88,0.00,,---,0.00,VWS V14.01,2013-03-29 04:45:00,
2013-03-28 21:51:00,51.1,48.0,30.09,NW,315,0.0,0.0,89,0.00,,---,0.00,VWS V14.01,2013-03-29 04:51:00,
2013-03-28 21:56:00,51.1,48.0,30.09,NW,315,0.0,2.0,89,0.00,,---,0.00,VWS V14.01,2013-03-29 04:56:00,
2013-03-28 22:01:00,51.1,47.7,30.09,NNW,338,0.0,0.0,88,0.00,,---,0.00,VWS V14.01,2013-03-29 05:01:00,
2013-03-28 22:07:00,51.1,47.7,30.09,NNW,338,0.0,0.0,88,0.00,,---,0.00,VWS V14.01,2013-03-29 05:07:00,
2013-03-28 22:12:00,51.1,47.7,30.09,NNW,338,0.0,0.0,88,0.00,,---,0.00,VWS V14.01,2013-03-29 05:12:00,
2013-03-28 22:17:00,50.9,47.5,30.09,NNW,338,0.0,0.0,88,0.00,,---,0.00,VWS V14.01,2013-03-29 05:17:00,
2013-03-28 22:23:00,50.9,47.8,30.09,NNW,338,0.0,0.0,89,0.00,,---,0.00,VWS V14.01,2013-03-29 05:23:00,
2013-03-28 22:28:00,50.9,47.8,30.09,NNW,338,0.0,0.0,89,0.00,,---,0.00,VWS V14.01,2013-03-29 05:28:00,
2013-03-28 22:34:00,50.9,47.8,30.09,NNW,338,0.0,0.0,89,0.00,,---,0.00,VWS V14.01,2013-03-29 05:34:00,
2013-03-28 22:39:00,50.9,47.8,30.09,NNW,338,0.0,0.0,89,0.00,,---,0.00,VWS V14.01,2013-03-29 05:39:00,
2013-03-28 22:44:00,50.7,47.6,30.09,North,0,0.0,0.0,89,0.00,,---,0.00,VWS V14.01,2013-03-29 05:44:00,
2013-03-28 22:49:00,50.7,47.6,30.09,NNE,22,0.0,0.0,89,0.00,,---,0.00,VWS V14.01,2013-03-29 05:49:00,
2013-03-28 22:54:00,50.7,47.6,30.09,NNE,22,0.0,0.0,89,0.00,,---,0.00,VWS V14.01,2013-03-29 05:54:00,
2013-03-28 22:59:00,50.7,47.6,30.09,NNE,22,0.0,0.0,89,0.00,,---,0.00,VWS V14.01,2013-03-29 05:59:00,
2013-03-28 23:05:00,50.7,47.6,30.09,NNE,22,0.0,0.0,89,0.00,,---,0.00,VWS V14.01,2013-03-29 06:05:00,
2013-03-28 23:10:00,50.5,47.4,30.09,NNE,22,0.0,0.0,89,0.00,,---,0.00,VWS V14.01,2013-03-29 06:10:00,
2013-03-28 23:15:00,50.5,47.4,30.09,ESE,112,0.0,0.0,89,0.00,,---,0.00,VWS V14.01,2013-03-29 06:15:00,
2013-03-28 23:20:00,50.5,47.4,30.09,ESE,112,0.0,0.0,89,0.00,,---,0.00,VWS V14.01,2013-03-29 06:20:00,
2013-03-28 23:25:00,50.5,47.4,30.09,ESE,112,0.0,0.0,89,0.00,,---,0.00,VWS V14.01,2013-03-29 06:25:00,
2013-03-28 23:30:00,50.5,47.7,30.09,ESE,112,0.0,0.0,90,0.00,,---,0.00,VWS V14.01,2013-03-29 06:30:00,
2013-03-28 23:36:00,50.5,47.4,30.09,SSW,202,0.0,0.0,89,0.00,,---,0.00,VWS V14.01,2013-03-29 06:36:00,
2013-03-28 23:41:00,50.5,47.7,30.09,SSW,202,0.0,0.0,90,0.00,,---,0.00,VWS V14.01,2013-03-29 06:41:00,
2013-03-28 23:46:00,50.5,47.7,30.09,SSW,202,0.0,0.0,90,0.00,,---,0.00,VWS V14.01,2013-03-29 06:46:00,
2013-03-28 23:51:00,50.5,47.7,30.09,SSW,202,0.0,0.0,90,0.00,,---,0.00,VWS V14.01,2013-03-29 06:51:00,
2013-03-28 23:56:00,50.5,47.7,30.09,SSW,202,0.0,0.0,90,0.00,,---,0.00,VWS V14.01,2013-03-29 06:56:00,